星链-32918 (STARLINK-32918)

导读

STARLINK-32918是美国太空探索技术公司SpaceX星链星座的一颗低轨卫星,于2025年2月23日发射入轨。星链项目旨在通过大规模低轨道卫星组网,为全球提供高速低延迟宽带互联网服务,尤其覆盖地面基础设施难以到达的偏远区域。STARLINK-32918运行于约550公里高度的近地轨道,秉承星链卫星轻量化紧凑设计理念,是SpaceX持续扩展星链星座网络、推进全球互联布局的最新部署之一,助力提升星座容量与服务覆盖能力。

基本信息
目录编号:
63087
目录名称:
STARLINK-32918
国际标识:
2025-037L
轨道中心:
EARTH
卫星名称:
星链-32918
卫星全名:
星链-32918 (STARLINK-32918)
卫星状态:
在轨 (已飞行476 天)
发射日期:
2025-02-23 UTC
国别 :
美国 (US)
星等 :
--
轨道信息
数据来源 国际轨道数据 AOE轨道数据
星历时间 2026-06-13T22:04:03+0800
17小时前
查看轨道信息
2026-06-14T03:00:00+0800
12小时前
查看轨道信息
半长轴 6950.18km 6950.201km
偏心率 0.0003637 0.0003717
轨道倾角 70.001° 69.999°
近地点辐角 258.607° 258.866°
升交点赤经 112.777° 112.256°
平近点角 101.468° 129.440°
近地点 569.515km 569.48km
远地点 574.571km 574.648km
周期 96.107分钟 96.107分钟
每日圈数 14.983342 14.983276
详细信息
固有亮度:
5
最大亮度:
2.5
卫星平台:
Starlink V1.0
覆盖范围:
全球
运营商:
太空探索技术公司
运营商所在国:
美国
制造商(研发单位):
太空探索技术公司
制造商所在国:
美国
使用方式:
暂无
卫星简介
Starlink 计划是 SpaceX 推出的全球卫星互联网项目,通过发射低轨道卫星,为全球尤其是偏远地区提供高速、低延迟的互联网服务。自 2019 年起,Starlink 已部署数千颗卫星,旨在缩小全球数字鸿沟,推动互联网普及。该项目还为军事、航空等行业提供通信支持,带来广泛经济效益。
2D轨道图
3D轨道图
轨道高度分析图
轨道倾角分析图
轨道综合分析图
查看轨道综合分析图